Location: Eichkamp
(52.4945°N, 13.2648°E)
Time: 18:34:04
(UTC+00:00)

Daily predictions for brighter satellites

Satellite Brightness Start Highest point End
(mag) Time Altitude Azimuth Time Altitude Azimuth Time Altitude Azimuth
Cosmos 1269 Rocket 4.2 18:14:00 10° SSW 18:19:18 84° WNW 18:24:40 10° NNE
STARLINK-1230 3.6 18:15:27 10° WSW 18:19:36 79° SSE 18:23:45 10° ENE
ATLAS CENTAUR R/B 3.8 18:21:20 10° NW 18:23:55 16° N 18:26:26 10° NNE
STARLINK-1209 2.8 18:21:34 10° W 18:24:32 79° N 18:27:29 10° E
STARLINK-1243 3.6 18:20:24 10° WSW 18:24:34 81° SSE 18:28:43 10° ENE
Cosmos 292 Rocket 3.8 18:21:54 10° NNW 18:26:44 87° ENE 18:31:33 10° SSE
Cosmos 1461 4.3 18:23:14 10° NNW 18:27:10 30° NNE 18:31:13 10° E
Cosmos 1703 4.3 18:24:08 10° N 18:27:34 27° ENE 18:31:00 10° SE
ARGOS Delta rocket 4.3 18:22:51 10° S 18:28:07 81° WSW 18:33:38 10° NNW
STARLINK-1236 3.6 18:25:26 10° WSW 18:29:35 84° SSE 18:33:45 10° E
Cosmos 2251 Rocket 3.9 18:24:51 10° S 18:29:52 42° ESE 18:34:55 10° NE
NOSS 3-4 (A) 4.1 18:23:30 10° NW 18:30:08 58° NE 18:37:29 10° ESE
NOSS 3-4 (C) 4.1 18:23:36 10° NW 18:30:15 58° NE 18:37:35 10° ESE
ERBS 3.5 18:28:19 10° WNW 18:31:30 38° N 18:34:42 10° ENE
Cosmos 1953 2.7 18:29:03 10° SSE 18:32:47 42° E 18:36:34 10° NNE
Cosmos 1455 Rocket 4.0 18:28:38 10° SSW 18:32:53 53° WNW 18:37:13 10° N
MONITOR-E 3.7 18:30:51 10° SSE 18:33:29 86° ENE 18:36:09 10° NNW
Cosmos 2315 Rocket 4.1 18:29:54 10° S 18:36:15 86° E 18:42:40 10° N
Cosmos 1626 Rocket 4.1 18:33:07 10° NNW 18:37:28 62° W 18:41:45 10° S
Cosmos 2369 Rocket 2.3 18:32:21 10° NNW 18:38:06 83° WSW 18:43:46 10° SSE
Resurs 01 Rocket 2.4 18:35:12 10° SE 18:39:11 34° ENE 18:43:11 10° N
FREGAT/IRIS 2.7 18:36:47 10° S 18:39:29 68° WSW 18:42:13 10° NNW
STARLINK-1269 3.6 18:35:21 10° WSW 18:39:30 88° SSE 18:43:40 10° E
Cosmos 1626 4.0 18:36:41 10° NNW 18:40:06 34° W 18:43:28 10° SSW
Aureole 3 4.0 18:36:28 10° S 18:41:01 65° E 18:46:53 10° NNE
NOSS 3-3 (A) 4.3 18:36:45 10° S 18:42:15 42° ESE 18:48:26 10° NE
NOSS 3-3 (C) 4.3 18:36:52 10° S 18:42:21 42° ESE 18:48:32 10° NE
Cosmos 1943 Rocket 2.7 18:38:37 10° NW 18:44:05 60° WSW 18:49:33 10° SSE
IRIDIUM 104 4.3 18:38:59 10° N 18:44:14 71° E 18:49:26 10° SSE
Cosmos 1437 2.7 18:41:23 10° N 18:44:23 54° ENE 18:47:21 10° SSE
STARLINK-1200 3.6 18:40:19 10° WSW 18:44:28 90° SSE 18:48:38 10° E
ADEOS Rocket 4.0 18:38:10 10° N 18:44:45 55° WNW 18:50:38 10° SW
CZ-2C R/B 4.1 18:42:27 10° NNE 18:47:00 42° E 18:51:26 10° S
Cosmos 1602 Rocket 4.1 18:42:49 10° NNW 18:47:15 63° W 18:51:36 10° S
STARLINK-1192 3.6 18:45:18 10° W 18:49:28 89° N 18:53:30 11° E
Cosmos 1470 3.4 18:49:29 10° SSW 18:53:19 61° WNW 18:57:14 10° N
IRIDIUM 114 4.3 18:48:08 10° N 18:53:24 83° E 18:58:37 10° S
Cosmos 2263 4.2 18:47:47 10° NNW 18:53:27 85° WSW 18:59:03 10° SSE
STARLINK-1244 3.6 18:50:17 10° W 18:54:26 87° N 18:58:17 12° E
Cosmos 1908 4.1 18:52:32 10° SSE 18:55:53 29° E 18:59:16 10° NNE
Ariane Rocket 4.0 18:52:20 10° S 18:57:14 48° W 19:02:09 10° NNW
Aureole 2 Rocket 3.8 18:55:37 10° NW 18:58:55 39° WSW 19:02:08 10° S
STARLINK-1138 3.6 18:55:16 10° W 18:59:25 86° NNW 19:03:05 13° E
Abrixas rocket 2.9 18:57:18 10° SW 19:00:01 32° S 19:01:19 22° ESE
Cosmos 2074 Rocket 4.0 18:53:42 10° N 19:00:01 84° E 19:06:20 10° S
STARLINK-67 2.3 18:57:58 10° W 19:00:33 85° N 19:01:57 24° E
IRIDIUM 103 4.4 18:57:19 10° N 19:02:35 84° W 19:07:48 10° S
Cosmos 1726 Rocket 4.1 18:58:36 10° SSE 19:02:39 38° E 19:06:46 10° NNE
ATLAS 2AS CENTAUR R/B 2.9 18:55:01 10° NW 19:02:50 79° NE 19:08:47 16° SE
STARLINK-1143 3.6 19:00:12 10° W 19:04:21 85° N 19:07:48 15° E
ISS -1.5 19:02:28 10° W 19:04:50 18° SW 19:07:11 10° S
Cosmos 1825 Rocket 3.5 19:00:34 10° N 19:05:01 84° ENE 19:09:24 10° SSE
USA 234 3.9 18:59:33 10° ENE 19:05:19 32° SE 19:11:04 10° SSW
Cosmos 1943 3.4 18:59:58 10° S 19:05:23 49° ESE 19:10:52 10° NE
STARLINK-1241 3.6 19:05:14 10° W 19:09:24 84° N 19:12:39 16° E
SL-08 RB Rocket 4.1 19:04:57 10° S 19:09:28 66° WSW 19:14:04 10° NNW
Spot 2 Rocket 4.1 19:06:11 17° SE 19:09:39 40° ENE 19:14:24 10° N
Meteor 2-17 Rocket 4.5 19:05:14 10° N 19:11:22 66° ENE 19:17:20 11° SSE
SPOT 3 Rocket 3.7 19:08:22 10° SSE 19:13:35 77° WSW 19:18:49 10° NNW
STARLINK-1239 3.6 19:10:13 10° W 19:14:23 83° N 19:17:25 18° E
Cosmos 1610 Rocket 4.4 19:09:14 10° N 19:15:29 74° ENE 19:21:38 10° SSE
SeaSat 1 4.1 19:11:05 10° NNE 19:15:37 38° NW 19:20:09 10° WSW
Cosmos 1758 Rocket 3.9 19:12:26 10° NNW 19:16:47 65° W 19:21:03 10° S
STARLINK-1240 3.6 19:15:12 10° W 19:19:22 83° N 19:22:12 20° E
MetOp-B 4.4 19:15:54 18° SE 19:19:45 54° ENE 19:24:59 10° N
SJ-6B 4.2 19:16:10 10° S 19:20:04 41° W 19:24:01 10° NNW
MOS 1 Rocket 3.6 19:16:20 10° NNE 19:21:35 60° E 19:26:56 10° S
Cosmos 1953 Rocket 3.6 19:19:30 10° N 19:24:00 89° ENE 19:27:53 14° S
STARLINK-1216 3.6 19:20:12 10° W 19:24:21 82° N 19:27:00 22° E
CZ-4C R/B 4.0 19:19:07 10° NW 19:24:41 33° N 19:31:14 10° ENE
SL-16 R/B 3.6 19:21:34 10° WSW 19:26:54 41° NW 19:32:17 10° NNE
STARLINK-1237 3.6 19:25:11 10° W 19:29:21 82° N 19:31:47 24° E
Terra 3.3 19:28:43 18° E 19:30:19 21° ENE 19:33:52 10° N
Cosmos 1818 3.7 19:25:19 10° SSW 19:30:32 50° ESE 19:35:48 10° NE
Cosmos 1606 Rocket 3.5 19:26:17 10° S 19:30:42 83° E 19:35:12 10° NNE
Cosmos 921 Rocket 3.2 19:27:02 10° NNW 19:31:09 50° ENE 19:32:50 31° ESE
SL-24 R/B 4.1 19:28:59 10° NNE 19:33:29 78° WNW 19:37:24 10° SSW
BREEZE M DEB (TANK) 4.1 19:26:18 10° SW 19:33:32 30° SSE 19:34:30 27° SE
CZ-2C R/B 2.5 19:28:27 10° NNE 19:33:38 68° ESE 19:38:47 10° S
STARLINK-1233 2.8 19:30:32 10° W 19:33:41 85° N 19:34:37 43° E
STARLINK-1212 2.8 19:30:59 10° W 19:34:09 85° NNE 19:35:01 44° E
STARLINK-1202 3.6 19:30:10 10° W 19:34:19 82° N 19:36:33 26° E
STARLINK-1105 2.8 19:31:26 10° W 19:34:36 85° NNE 19:35:29 44° E
Cosmos 614 Rocket 4.1 19:29:35 10° S 19:34:37 49° ESE 19:39:38 10° NE
STARLINK-1206 2.8 19:31:55 10° W 19:35:04 85° NNE 19:35:53 46° E
STARLINK-1247 2.8 19:32:22 10° W 19:35:30 85° N 19:36:19 46° E
STARLINK-1203 3.6 19:31:30 10° W 19:35:38 82° N 19:37:45 28° E
Cosmos 407 Rocket 3.8 19:30:51 10° S 19:35:40 42° ESE 19:40:31 10° NE
Cosmos 1656 Rocket 4.0 19:30:16 10° NW 19:35:54 64° WSW 19:40:14 17° SSE
STARLINK-1227 2.8 19:32:46 10° W 19:35:56 86° N 19:36:46 46° E
STARLINK-1218 2.8 19:33:16 10° W 19:36:25 86° NNE 19:37:11 48° E
Cosmos 2228 2.9 19:32:28 10° S 19:36:47 89° ENE 19:41:09 10° N
STARLINK-1226 2.8 19:33:42 10° W 19:36:51 86° NNE 19:37:37 48° E
STARLINK-1254 2.8 19:34:08 10° W 19:37:18 86° NNE 19:38:04 48° E
STARLINK-1215 2.8 19:34:38 10° W 19:37:46 86° N 19:38:29 50° E
STARLINK-1231 2.8 19:35:06 10° W 19:38:14 86° NNE 19:38:56 50° E
SPOT 1/Viking Rocket 4.0 19:36:25 27° ESE 19:38:51 46° ENE 19:43:51 10° N
STARLINK-1232 2.8 19:35:59 10° W 19:39:07 87° NNE 19:39:48 52° E
STARLINK-1217 2.8 19:36:26 10° W 19:39:34 87° N 19:40:14 52° E
STARLINK-1208 2.8 19:36:51 10° W 19:40:00 87° NNE 19:40:41 52° E
STARLINK-1229 2.8 19:37:19 10° W 19:40:27 87° N 19:41:04 54° E
STARLINK-1271 2.8 19:37:47 10° W 19:40:55 88° NNE 19:41:32 55° E
IGS 5A 3.9 19:39:45 33° ESE 19:41:02 44° ENE 19:45:02 10° N
STARLINK-1270 2.8 19:38:15 10° W 19:41:22 88° NNE 19:41:57 56° E
Cosmos 1295 Rocket 4.5 19:35:05 10° N 19:41:23 83° E 19:46:25 17° SSE
SAR-Lupe-2 3.8 19:38:05 10° NNE 19:41:35 47° E 19:42:09 42° SE
STARLINK-1154 2.8 19:38:40 10° W 19:41:49 88° N 19:42:23 56° E
STARLINK-1197 2.7 19:39:35 10° W 19:42:43 88° N 19:43:15 58° E
STARLINK-1189 2.7 19:40:03 10° W 19:43:11 88° N 19:43:42 59° E
STARLINK-1198 2.7 19:40:29 10° W 19:43:37 89° N 19:44:07 60° E
STARLINK-1188 2.7 19:40:56 10° W 19:44:04 89° NNE 19:44:33 61° E
STARLINK-1246 3.6 19:40:06 10° W 19:44:16 82° N 19:46:06 32° E
Cosmos 2341 Rocket 4.0 19:38:09 10° N 19:44:32 69° ENE 19:48:37 24° SSE
STARLINK-1235 2.8 19:41:35 10° W 19:44:44 85° SSW 19:45:11 63° ESE
STARLINK-1187 2.8 19:41:54 10° W 19:45:04 88° SSW 19:45:33 62° ESE
BREEZE-M DEB (TANK) 4.2 19:40:12 10° W 19:45:09 32° SW 19:45:58 28° S
COSMOS 2455 2.9 19:39:07 10° NW 19:45:10 71° NE 19:48:18 30° SE
STARLINK-1199 2.8 19:42:52 10° W 19:46:02 90° NNE 19:46:28 63° E
SL-4 R/B 4.1 19:43:37 10° SSW 19:43:45 11° SSW 19:43:45 11° SSW
STARLINK-1191 2.8 19:43:19 10° W 19:46:29 90° N 19:46:54 64° E
STARLINK-1201 2.9 19:43:30 10° W 19:46:47 89° N 19:47:21 59° E
STARLINK-1210 2.8 19:43:46 10° W 19:46:56 90° WSW 19:47:20 65° E
STARLINK-1221 2.7 19:44:13 10° W 19:47:23 90° WSW 19:47:46 66° E
STARLINK-1219 2.7 19:44:40 10° W 19:47:50 89° SW 19:48:12 67° ESE
STARLINK-1222 2.7 19:45:08 10° W 19:48:17 89° SSW 19:48:38 68° ESE
Cosmos 1980 Rocket 4.2 19:44:37 10° NNW 19:48:20 18° NNE 19:52:03 10° ENE
STARLINK-1211 2.7 19:45:35 10° W 19:48:44 89° SSW 19:49:04 69° ESE
Cosmos 1603 3.9 19:43:21 10° SW 19:48:59 74° WNW 19:54:38 10° NNE
STARLINK-1214 2.7 19:46:02 10° W 19:49:12 89° S 19:49:31 70° ESE
Cosmos 1726 3.5 19:45:42 10° SW 19:49:15 41° WNW 19:52:50 10° N
STARLINK-1224 3.6 19:45:08 10° W 19:49:18 83° N 19:50:55 36° E
STARLINK-1234 2.6 19:46:28 10° W 19:49:31 80° SSW 19:49:39 77° SSE
STARLINK-1228 2.6 19:46:37 10° W 19:49:30 78° SSW 19:49:30 78° SSW
Cosmos 1340 Rocket 2.8 19:47:46 31° S 19:49:33 63° E 19:53:35 10° NNE
STARLINK-1245 2.7 19:46:31 10° W 19:49:38 89° SSW 19:49:55 73° ESE
ERS-1 Rocket 3.4 19:47:59 32° ESE 19:49:46 44° ENE 19:54:32 10° N
STARLINK-1238 2.7 19:46:55 10° W 19:50:06 88° S 19:50:23 72° ESE
STARLINK-1205 2.7 19:47:52 10° W 19:51:01 88° S 19:51:14 76° ESE
STARLINK-1204 2.7 19:48:19 10° W 19:51:27 88° SSW 19:51:39 77° ESE
H-2A R/B 4.3 19:47:54 10° SW 19:51:57 22° W 19:55:57 10° NW
STARLINK-1225 3.6 19:50:05 10° W 19:54:15 83° N 19:55:41 40° E
Cosmos 1892 3.8 19:53:30 10° N 19:56:50 29° ENE 19:56:50 29° ENE
STARLINK-1230 3.6 19:55:05 10° W 19:59:15 84° N 20:00:28 45° E
STARLINK-1209 3.0 19:56:51 10° W 19:59:26 60° WSW 19:59:26 60° WSW
STARLINK-1243 3.5 20:00:03 10° W 20:04:13 85° N 20:05:14 50° E
ATLAS CENTAUR R/B 3.4 20:01:18 10° NNW 20:04:16 19° NNE 20:06:08 14° NE
Cosmos 2218 Rocket 4.0 19:59:09 10° N 20:05:17 62° ENE 20:07:51 35° SE
Cosmos 1461 3.1 20:02:11 10° NW 20:06:39 72° SW 20:07:55 46° SSE
ERBS 2.9 20:04:59 10° WNW 20:08:17 48° NNE 20:08:37 45° NE
Cosmos 1408 4.3 20:05:27 10° NNE 20:07:36 20° NE 20:07:36 20° NE
STARLINK-1236 3.5 20:05:05 10° W 20:09:15 86° N 20:10:04 56° E
Cosmos 1076 Rocket 3.6 20:06:39 10° N 20:10:50 52° ENE 20:11:09 50° E
Cosmos 1023 Rocket 4.4 20:11:24 28° S 20:14:03 65° ESE 20:19:09 10° NNE
Cosmos 2151 4.2 20:11:20 10° N 20:14:38 27° ENE 20:14:38 27° ENE
Resurs 01 Rocket 3.1 20:12:28 15° SSW 20:15:40 34° W 20:19:43 10° NNW
ATLAS 5 CENTAUR R/B 3.7 20:20:51 15° ENE 20:20:51 15° ENE 20:21:47 10° NE
Cosmos 1825 4.0 20:15:04 10° NNE 20:17:15 20° NE 20:17:15 20° NE
In-Cosmos 22 Rocket 4.2 20:12:23 10° N 20:18:14 73° ENE 20:20:12 43° SSE
STARLINK-1269 3.5 20:15:01 10° W 20:19:10 88° N 20:19:36 71° E
USA 245 4.5 20:18:18 30° S 20:21:07 70° W 20:27:23 10° NNW
NOSS 3-4 (A) 4.3 20:14:29 10° NW 20:21:11 53° SW 20:24:57 28° S
NOSS 3-4 (C) 4.3 20:14:35 10° NW 20:21:17 53° SW 20:25:02 29° S
Cosmos 2181 Rocket 3.9 20:18:41 33° SSE 20:21:34 69° E 20:27:43 10° NNE
Cosmos 2058 Rocket 3.6 20:18:19 18° SSW 20:21:39 61° WNW 20:26:09 10° N
Cosmos 1300 2.6 20:23:46 84° NE 20:23:46 84° NE 20:27:32 10° NNE
STARLINK-1200 3.4 20:19:58 10° W 20:24:08 90° SW 20:24:22 80° E
Landsat 7 3.9 20:24:18 43° S 20:25:47 71° WSW 20:30:34 10° NNW
Cosmos 1763 Rocket 3.8 20:22:48 10° NNW 20:27:56 52° ENE 20:28:47 46° E
STARLINK-1192 3.5 20:24:58 10° W 20:29:07 88° SSW 20:29:09 88° SSE
SL-8 Rocket 4.0 20:23:45 10° NNW 20:30:05 81° W 20:32:55 36° S
STARLINK-1244 3.5 20:29:56 10° W 20:33:56 81° WSW 20:33:56 81° WSW
Cosmos 864 Rocket 4.4 20:28:16 10° N 20:34:34 87° E 20:36:40 45° SSE
Cosmos 1174 4.0 20:31:55 10° NW 20:35:44 65° NE 20:35:46 65° NE
CARTOSAT-1 3.4 20:36:52 81° S 20:37:05 89° SW 20:41:27 10° NNW
Cosmos 2058 2.8 20:33:54 10° N 20:37:54 84° NNW 20:37:54 84° NNW
STARLINK-1138 3.7 20:34:56 10° W 20:38:43 73° W 20:38:43 73° W
SPOT 5 2.4 20:39:20 82° SSE 20:39:32 90° ENE 20:43:53 10° NNW
SL-24 R/B - RUBIN 2 4.2 20:34:23 10° SSW 20:40:05 73° SE 20:46:29 10° NE
Cosmos 2366 rocket 3.9 20:34:16 10° NNW 20:40:27 84° W 20:42:31 45° S
STARLINK-1143 3.8 20:39:51 10° W 20:43:28 65° W 20:43:28 65° W
Cosmos 1766 Rocket 4.4 20:41:23 10° N 20:45:05 38° NE 20:45:05 38° NE
Cosmos 1190 Rocket 4.2 20:40:52 12° SW 20:45:45 70° WNW 20:51:04 10° NNE
Cosmos 2369 4.3 20:43:05 10° NNW 20:48:29 43° NE 20:49:33 39° ENE
USA 234 3.1 20:42:23 10° ENE 20:48:58 80° SSE 20:55:32 10° WSW
STARLINK-1241 4.0 20:44:53 10° WNW 20:48:18 58° W 20:48:18 58° W
Cosmos 540 Rocket 4.1 20:44:15 10° NNW 20:49:10 42° NE 20:49:35 41° ENE
Nadezhda 3 Rocket 4.4 20:52:27 43° E 20:52:38 43° E 20:58:32 10° NNE
ATLAS 2AS CENTAUR R/B 3.9 20:46:37 10° NW 20:53:14 34° WSW 20:56:14 25° SSW
STARLINK-1239 4.2 20:49:52 10° WNW 20:53:05 51° W 20:53:05 51° W
Cosmos 1140 Rocket 3.7 20:51:22 23° SW 20:54:35 67° WNW 20:59:46 10° NNE
Iridium 4 Rocket 3.3 20:52:21 10° N 20:56:37 59° W 20:56:43 58° W
Cosmos 1570 Rocket 4.1 20:51:46 10° NNW 20:57:07 61° ENE 20:57:27 60° E
Meteor 2-12 Rocket 4.4 20:52:18 10° NNW 20:58:27 79° W 20:59:54 54° S
STARLINK-1240 4.4 20:54:51 10° WNW 20:57:50 45° W 20:57:50 45° W
Meteor 2-3 Rocket 4.4 20:54:27 10° N 20:59:54 40° ENE 21:00:13 40° ENE
Cosmos 1812 Rocket 3.7 21:00:32 70° NNW 21:00:32 70° NNW 21:04:31 10° N
RESURS DK-1 3.2 20:56:16 10° NNW 20:59:42 43° NNE 20:59:42 43° NNE
Cosmos 841 Rocket 3.7 20:56:15 10° NNW 21:01:29 55° ENE 21:01:39 55° ENE
BREEZE M DEB (TANK) 3.8 21:02:08 52° SSE 21:02:45 54° SSE 21:17:35 10° ENE
Cosmos 1697 Rocket 3.0 21:00:49 10° NNW 21:06:24 55° NE 21:06:58 53° ENE
Terra 1.9 21:07:36 70° WSW 21:07:37 70° WSW 21:12:24 10° NNW
Cosmos 468 Rocket 4.0 21:04:16 10° NNW 21:09:27 71° WSW 21:09:34 70° WSW
Cosmos 676 Rocket 4.3 21:12:05 44° SW 21:13:37 67° WNW 21:18:53 10° NNE
CZ-4C R/B 3.3 21:08:02 10° NW 21:14:36 55° NNE 21:17:32 36° E
Mayak 0.4 21:11:20 10° NNE 21:13:23 27° NE 21:13:23 27° NE
SL-16 R/B 4.1 21:11:57 10° NNW 21:16:16 22° NNE 21:18:41 17° ENE
Meteor 2-10 Rocket 3.7 21:20:35 60° NE 21:20:35 60° NE 21:25:11 10° NNE
Cosmos 2239 Rocket 4.3 21:15:14 10° N 21:21:29 77° ENE 21:21:59 72° ESE
Cosmos 2344 4.4 21:13:58 10° NW 21:22:46 68° NE 21:28:51 32° ESE
Cosmos 1821 Rocket 3.9 21:16:48 10° N 21:23:12 87° E 21:23:55 72° SSE
Cosmos 489 Rocket 4.3 21:20:11 10° NNW 21:26:25 82° WSW 21:26:55 75° S
Thor Agena Rocket 4.3 21:21:31 10° NNE 21:25:02 40° NE 21:25:02 40° NE
Cosmos 2322 Rocket 4.1 21:23:21 10° NNW 21:27:41 22° NNE 21:30:00 17° ENE
ERS-1 Rocket 4.2 21:27:59 31° WSW 21:28:42 32° W 21:33:13 10° NNW
COSMOS 2455 4.1 21:25:35 10° NW 21:30:41 29° WSW 21:31:27 28° SW
Spot 4 4.4 21:31:43 51° NNE 21:31:43 51° NNE 21:35:39 10° N
Cosmos 1408 Rocket 4.5 21:26:27 10° N 21:29:42 45° NNE 21:29:42 45° NNE
Cosmos 2208 Rocket 4.0 21:26:20 10° NNW 21:31:05 75° NNW 21:31:05 75° NNW
ASTEX 1 3.6 21:33:47 68° N 21:33:47 68° N 21:38:08 10° N
Cosmos 1980 Rocket 2.6 21:28:14 10° NNW 21:33:43 51° NE 21:33:52 50° ENE
Cosmos 1455 4.1 21:37:02 28° N 21:37:02 28° N 21:38:58 10° N
Cosmos 1934 Rocket 3.9 21:29:08 10° N 21:35:28 70° ENE 21:35:38 70° E
Cosmos 1741 Rocket 4.3 21:39:05 60° NE 21:39:05 60° NE 21:43:28 10° NNE
Cosmos 2360 4.3 21:34:42 10° NNW 21:40:17 68° NE 21:40:17 68° NE
Cosmos 1605 Rocket 4.2 21:35:57 10° N 21:41:55 54° ENE 21:41:55 54° ENE
ATLAS CENTAUR R/B 3.0 21:40:04 10° NW 21:42:19 30° NNW 21:42:19 30° NNW
Cosmos 1656 4.2 21:45:16 10° NW 21:50:24 51° W 21:50:24 51° W
Cosmos 2278 3.8 21:46:57 10° NNW 21:52:13 73° NNE 21:52:13 73° NNE
Cosmos 1825 4.3 21:50:09 10° NNW 21:52:04 25° NW 21:52:04 25° NW
Cosmos 2082 Rocket 3.7 22:02:46 25° ENE 22:02:46 25° ENE 22:05:29 10° NE
ATLAS 5 CENTAUR R/B 2.7 22:02:16 45° NNW 22:02:16 45° NNW 22:06:49 10° NE
Cosmos 2221 4.4 22:08:57 26° NNE 22:08:57 26° NNE 22:10:59 10° NNE
ALOS 2 4.0 22:09:35 37° N 22:09:35 37° N 22:12:20 10° N
COSMOS 2406 3.5 22:09:22 62° NNE 22:09:22 62° NNE 22:14:07 10° NNE
Cosmos 1833 Rocket 3.4 22:21:36 46° NE 22:21:36 46° NE 22:25:34 10° NE
USA 234 3.5 22:25:29 10° ENE 22:31:57 64° N 22:38:23 10° W
Terra 4.4 22:46:29 11° W 22:46:29 11° W 22:47:32 10° WNW
Cosmos 1697 Rocket 4.1 22:45:08 10° NW 22:48:42 29° WNW 22:48:42 29° WNW
Mayak 1.0 22:47:28 10° N 22:49:57 21° NW 22:49:57 21° NW
Cosmos 1727 Rocket 4.1 22:59:22 74° NNE 22:59:22 74° NNE 23:05:08 10° N
SL-16 R/B 2.6 22:55:45 10° NNW 23:00:33 59° N 23:00:33 59° N
Cosmos 1459 Rocket 4.1 22:55:20 10° N 23:01:18 73° NE 23:01:18 73° NE
Cosmos 1802 Rocket 4.2 22:56:59 10° N 23:02:46 65° NE 23:02:46 65° NE
CZ-4C R/B 3.1 22:56:33 10° NW 23:02:43 58° W 23:02:43 58° W
Cosmos 1725 Rocket 4.4 23:03:09 10° N 23:09:17 54° ENE 23:09:17 54° ENE
Cosmos 2360 Rocket 3.0 23:05:09 10° NNW 23:10:31 43° NE 23:10:44 43° NE
Cosmos 2333 Rocket 4.1 23:07:05 10° NNW 23:11:45 25° NE 23:15:07 15° E
Cosmos 2016 Rocket 4.2 23:06:22 10° N 23:12:25 66° ENE 23:12:25 66° ENE
Cosmos 2322 Rocket 2.6 23:07:06 10° NNW 23:11:48 58° N 23:11:48 58° N
Cosmos 2100 Rocket 4.1 23:07:21 10° NNW 23:12:54 72° NNW 23:12:54 72° NNW
Cosmos 1980 Rocket 3.6 23:12:31 10° NW 23:15:38 28° WNW 23:15:38 28° WNW
Cosmos 2173 Rocket 4.2 23:23:11 10° NNW 23:28:25 62° NW 23:28:25 62° NW
Resurs 1-4 Rocket 4.1 23:32:37 10° NE 23:36:00 18° E 23:36:00 18° E
Cosmos 2082 Rocket 2.8 23:44:34 50° NW 23:44:34 50° NW 23:49:50 10° NNE
ATLAS 5 CENTAUR R/B 4.0 23:43:45 10° WNW 23:47:43 25° N 23:52:11 10° NE
CZ-2D R/B 3.8 23:44:24 10° NE 23:48:41 23° E 23:48:41 23° E
